Hourly Data Report for November 12, 2019

All times are specified in Local Standard Time (LST). Add 1 hour to adjust for Daylight Saving Time where and when it is observed.

CHESTERFIELD INLET A
NUNAVUT
Current Station Operator: NAVCAN

63°20'50.000" N
90°43'52.000" W
9.80 m
2300710
YCS

Download Data

Hourly Data (November 2019)
Hourly Data Report for November 12, 2019
TIME Temp Definition
°C
Dew Point Definition
°C
Rel Hum Definition
%
Wind Dir Definition
10's deg

Wind Spd Definition
km/h
Visibility Definition
km
Stn Press Definition
kPa
Hmdx Definition


Wind Chill Definition


Weather Definition


00:00 -22.9 -26.2 74 3 2 LegendMM 101.23   -25 LegendNANA
01:00 -20.5 -22.9 81 16 11 LegendMM 101.12   -28 LegendNANA
02:00 -20.3 -23.1 78 16 9 LegendMM 101.04   -27 LegendNANA
03:00 -18.2 -20.6 82 14 4 LegendMM 100.95   -21 LegendNANA
04:00 -13.7 -15.4 87 15 9 LegendMM 100.82   -19 LegendNANA
05:00 -15.3 -17.5 83 31 3 LegendMM 100.73   -17 LegendNANA
06:00 -14.6 -16.6 85 15 4 LegendMM 100.63   -17 LegendNANA
07:00 -12.7 -14.4 87 15 7 LegendMM 100.57   -17 LegendNANA
08:00 -10.1 -11.5 90 18 16 LegendMM 100.50   -17 LegendNANA
09:00 -9.1 -10.4 91 17 19 LegendMM 100.43   -17 LegendNANA
10:00 -8.5 -9.8 90 17 20 LegendMM 100.37   -16 LegendNANA
11:00 -7.9 -9.2 91 17 20 LegendMM 100.32   -15 LegendNANA
12:00 -7.8 -9.2 90 18 16 LegendMM 100.26   -14 LegendNANA
13:00 -10.3 -12.4 84 26 13 LegendMM 100.25   -17 LegendNANA
14:00 -10.5 -12.5 85 26 8 LegendMM 100.23   -15 LegendNANA
15:00 -11.4 -13.3 86 27 5 LegendMM 100.21   -15 LegendNANA
16:00 -11.7 -13.5 87 31 4 LegendMM 100.21   -14 LegendNANA
17:00 -12.6 -14.7 85 30 8 LegendMM 100.19   -18 LegendNANA
18:00 -12.8 -14.3 88 34 7 LegendMM 100.16   -17 LegendNANA
19:00 -11.6 -13.3 88 29 12 LegendMM 100.16   -18 LegendNANA
20:00 -11.1 -12.8 88 29 10 LegendMM 100.16   -17 LegendNANA
21:00 -11.4 -13.1 87 30 14 LegendMM 100.16   -18 LegendNANA
22:00 -11.6 -13.4 87 28 9 LegendMM 100.17   -17 LegendNANA
23:00 -11.4 -13.2 87 26 4 LegendMM 100.19   -14 LegendNANA

Notes on Data Quality.

Legend

  • E = Estimated
  • M = Missing
  • NA = Not Available
Date modified: